Location: Donzy-le-Pr�
(47.3659°N, 3.1107°E)
Time: 21:55:38
(UTC+00:00)

Daily predictions for brighter satellites

Satellite Brightness Start Highest point End
(mag) Time Altitude Azimuth Time Altitude Azimuth Time Altitude Azimuth
Cosmos 2184 Rocket 4.0 17:56:41 10° S 18:02:43 61° E 18:08:49 10° NNE
Cosmos 1707 Rocket 3.5 17:59:04 10° N 18:03:29 81° E 18:07:50 10° S
CZ-2C R/B 3.5 18:03:22 10° NE 18:08:02 28° E 18:12:35 10° SSE
CZ-4 R/B 1.3 18:04:46 10° SSE 18:08:33 60° ENE 18:12:26 10° N
H-2A R/B 2.2 18:03:15 10° SSE 18:08:38 64° ENE 18:14:02 10° N
USA 305 3.9 18:05:59 10° W 18:10:01 39° NNW 18:14:03 10° ENE
SAR-Lupe-4 4.5 18:07:36 10° NE 18:10:43 27° E 18:13:49 10° SSE
IRS-1C Rocket 4.1 18:07:10 10° SSE 18:12:26 82° ENE 18:17:44 10° NNW
Gbstr 26 Del rocket 3.6 18:08:29 10° W 18:12:43 61° NNW 18:17:56 10° ENE
Meteor 1-20 Rocket 4.1 18:09:27 10° S 18:14:53 73° E 18:20:23 10° NNE
Cosmos 1302 Rocket 4.1 18:10:00 10° SSW 18:15:11 84° WNW 18:20:27 10° NNE
SL-4 R/B 2.4 18:11:58 10° WNW 18:15:24 40° N 18:18:38 10° ENE
CSL-04 DEB 4.5 18:14:51 10° NNE 18:18:49 80° WNW 18:22:49 10° SSW
USA 307 4.0 18:17:20 10° W 18:21:21 37° NNW 18:25:21 10° ENE
FALCON 9 DEB 3.4 18:19:58 10° WNW 18:23:20 53° NNE 18:26:13 13° E
ATLAS CENTAUR R/B 2.1 18:20:43 10° S 18:23:46 26° ESE 18:26:50 10° ENE
USA 186 3.4 18:25:07 11° NE 18:25:07 11° NE 18:25:23 10° NE
USA 306 4.0 18:20:48 10° WNW 18:24:47 36° N 18:28:45 10° ENE
Cosmos 1354 Rocket 4.3 18:20:47 10° NNW 18:25:53 47° ENE 18:30:55 10° SE
Cosmos 44 Rocket 3.5 18:21:55 10° NW 18:27:12 87° SW 18:32:24 10° SSE
FALCON 9 DEB 4.4 18:24:26 10° WNW 18:27:13 28° N 18:29:48 11° ENE
ERS-2 2.3 18:24:32 10° NNE 18:28:05 47° ESE 18:31:37 10° S
Okean-O 2.6 18:23:58 10° SSE 18:28:23 82° ENE 18:32:51 10° NNW
FALCON 9 DEB 4.4 18:26:19 10° WNW 18:29:10 28° N 18:31:45 12° ENE
Cosmos 1844 Rocket 2.9 18:24:06 10° NNW 18:29:31 49° NE 18:34:54 10° SE
Cosmos 2084 Rocket 3.5 18:25:17 10° NW 18:29:37 78° NE 18:34:06 10° SE
CSL-04 Rocket 3.8 18:24:24 10° SE 18:29:48 56° ENE 18:35:12 10° N
SAR-Lupe-1 4.3 18:26:43 10° NNE 18:30:13 47° E 18:33:41 10° S
CSL-04 Debris 4.2 18:25:48 10° SSE 18:31:09 61° ENE 18:36:33 10° N
USA 308 4.1 18:28:01 10° WNW 18:32:00 36° N 18:35:51 11° ENE
Cosmos 1271 Rocket 4.1 18:30:22 10° NNW 18:33:55 41° W 18:37:27 10° SSW
Cosmos 1666 3.9 18:31:09 10° SE 18:33:55 20° E 18:36:43 10° NE
Cosmos 1503 Rocket 4.0 18:30:59 10° NNW 18:36:10 65° ENE 18:41:17 10° SSE
HJ-1C 3.2 18:33:00 10° SSE 18:36:18 69° ENE 18:39:37 10° N
H-2A R/B 4.4 18:33:24 10° N 18:36:47 25° WNW 18:40:09 10° WSW
Cosmos 2341 Rocket 4.4 18:32:02 10° SSE 18:37:51 41° E 18:43:39 10° NNE
PSLV R/B 3.8 18:35:06 10° NNE 18:39:13 82° ESE 18:43:16 10° SSW
Cosmos 1844 3.9 18:35:42 10° NNW 18:41:21 51° ENE 18:46:54 10° SE
Cosmos 1470 Rocket 3.5 18:37:20 10° S 18:41:47 71° E 18:46:14 10° NNE
CZ-4B R/B 3.3 18:40:25 10° N 18:43:08 30° WNW 18:45:53 10° SW
Cosmos 2360 Rocket 2.3 18:38:47 10° S 18:44:14 51° ESE 18:49:43 10° NE
Ariane Rocket 3.9 18:42:04 15° ESE 18:45:22 28° ENE 18:49:40 10° N
Cosmos 1602 4.2 18:41:35 10° SSW 18:45:27 66° W 18:49:22 10° N
Cosmos 2278 Rocket 3.8 18:42:27 10° N 18:46:21 18° NE 18:48:36 15° ENE
Meteor 1-19 Rocket 4.5 18:43:05 10° NNW 18:49:04 79° W 18:54:49 10° S
Cosmos 1500 3.0 18:48:47 10° S 18:52:29 69° E 18:56:13 10° NNE
Meteor 2-4 Rocket 3.8 18:47:47 10° N 18:53:38 71° ENE 18:59:32 10° SSE
Cosmos 1703 Rocket 3.7 18:49:33 10° N 18:53:53 52° ENE 18:58:08 10° SSE
Cosmos 2333 Rocket 3.0 18:49:47 10° SSE 18:54:32 28° ESE 18:59:19 10° NE
Cosmos 2218 Rocket 4.5 18:50:41 10° SSE 18:56:28 38° E 19:02:17 10° NNE
Cosmos 1689 Rocket 2.5 18:53:44 10° N 18:56:36 62° WNW 18:59:26 10° SSW
SL-08 RB Rocket 3.6 18:52:27 10° SSE 18:56:58 84° ENE 19:01:34 10° NNW
Meteor 2-12 Rocket 4.4 18:51:54 10° S 18:57:58 86° E 19:04:06 10° N
ERBS 4.0 18:56:58 10° W 18:59:54 28° NNW 19:02:19 13° NNE
Cosmos 1980 Rocket 4.4 18:56:22 10° W 19:00:51 23° NW 19:05:21 10° N
Cosmos 1933 Rocket 3.4 18:58:21 10° S 19:02:41 78° E 19:07:06 10° NNE
Aureole 2 Rocket 3.1 19:02:15 10° NW 19:04:38 37° WSW 19:06:51 11° S
Cosmos 2242 Rocket 3.5 19:07:25 10° N 19:11:58 89° E 19:16:26 10° S
Resurs 01 Rocket 3.1 19:12:40 20° NE 19:12:40 20° NE 19:15:17 10° NNE
Cosmos 2322 Rocket 2.8 19:08:42 10° SW 19:14:14 59° WNW 19:19:49 10° NNE
Lacrosse 4 Rocket 2.9 19:12:29 10° S 19:14:29 22° SSE 19:14:29 22° SSE
Abrixas rocket 2.0 19:13:54 10° W 19:16:07 57° NW 19:16:07 57° NW
SME Rocket 4.3 19:10:20 10° NNE 19:18:20 52° E 19:23:33 10° S
Helios 1A Rocket 4.1 19:15:34 10° S 19:19:26 44° W 19:23:19 10° NNW
FALCON 9 DEB 4.2 19:17:35 10° WNW 19:20:28 30° N 19:20:46 29° NNE
Cosmos 192 4.5 19:17:00 10° S 19:21:41 48° ESE 19:26:25 10° NNE
SJ-6B 2.8 19:22:30 33° SSE 19:24:14 68° ENE 19:28:16 10° N
COSMOS 2428 3.2 19:19:23 10° S 19:24:30 35° ESE 19:24:51 35° E
ASTEX 1 3.4 19:22:39 10° NNE 19:27:26 52° E 19:30:11 24° SSE
GP-B 3.6 19:24:00 10° S 19:28:23 62° W 19:32:48 10° N
MOS 1 4.2 19:25:33 23° SE 19:29:07 64° ENE 19:34:45 10° N
Cosmos 2219 Rocket 2.3 19:26:04 10° S 19:31:23 47° ESE 19:36:45 10° NE
Meteor 1-11 Rocket 3.7 19:26:10 10° S 19:31:46 58° E 19:37:16 10° NNE
FALCON 9 DEB 4.2 19:30:03 10° NW 19:32:42 32° N 19:32:42 32° N
MetOp-A 4.1 19:27:52 10° SSE 19:33:14 83° WSW 19:38:38 10° NNW
Cosmos 1241 Rocket 4.5 19:26:59 10° NW 19:33:39 81° NE 19:36:55 32° SE
OBJECT-B 1.5 19:36:26 44° N 19:36:26 44° N 19:38:45 10° N
Resurs 1-3 3.7 19:38:47 55° ENE 19:38:47 55° ENE 19:43:02 10° N
SL-16 R/B 3.8 19:34:02 10° WSW 19:39:09 34° NW 19:44:19 10° NNE
SJ 16-02 2.3 19:36:24 10° N 19:39:34 32° NE 19:39:34 32° NE
SeaSat 1 3.1 19:35:58 10° NNE 19:40:48 57° NW 19:45:38 10° SW
Okean 1-7 3.7 19:36:48 10° NNW 19:41:05 54° W 19:45:18 10° S
Cosmos 1066 Rocket 4.2 19:37:38 10° N 19:43:21 70° ENE 19:45:41 37° SSE
Meteor 1-13 Rocket 4.3 19:37:47 10° NNW 19:43:47 86° W 19:48:31 16° S
USA 234 3.1 19:39:54 26° ENE 19:43:53 73° SE 19:50:25 10° SW
CZ-2C R/B 3.7 19:43:17 10° N 19:48:32 47° WNW 19:53:39 10° SW
IRS-1A Rocket 4.2 19:46:43 26° SSE 19:50:05 87° WSW 19:55:41 10° NNW
USA 305 3.9 19:46:46 10° WNW 19:50:43 35° N 19:50:56 35° NNE
BREEZE-M DEB (TANK) 2.5 19:48:10 10° WNW 19:50:54 70° NNE 19:51:09 68° NE
Cosmos 2322 3.6 19:45:37 10° SSW 19:51:21 83° ESE 19:57:06 10° NNE
SL-4 R/B 2.6 19:51:42 10° WNW 19:54:12 44° WNW 19:54:12 44° WNW
USA 186 4.4 19:56:42 13° NW 19:56:42 13° NW 19:57:13 10° NW
Cosmos 1869 Rocket 3.8 19:52:40 10° SSW 19:57:00 68° W 20:01:25 10° N
SL-8 Rocket 4.3 19:53:17 10° SSW 19:59:29 67° W 20:05:41 10° N
Gbstr 26 Del rocket 3.8 19:55:31 10° WNW 20:00:14 55° N 20:00:59 50° NE
USA 307 4.0 19:58:06 10° WNW 20:01:49 36° N 20:01:49 36° N
ATLAS CENTAUR R/B 2.6 19:59:12 10° WSW 20:02:31 32° NW 20:03:11 30° NNW
Cosmos 1378 4.5 20:01:38 10° NNW 20:03:53 34° NNW 20:03:53 34° NNW
USA 306 4.0 20:01:29 10° WNW 20:05:03 36° N 20:05:03 36° N
USA 308 4.2 20:08:43 10° WNW 20:12:00 35° NNW 20:12:00 35° NNW
Cosmos 1844 Rocket 4.4 20:08:26 10° NW 20:13:09 29° WSW 20:17:52 10° SSW
Cosmos 2366 rocket 4.4 20:08:17 10° SSW 20:14:32 65° WNW 20:20:53 10° N
SL-08 R/B 4.4 20:11:58 29° S 20:15:31 83° E 20:22:02 10° N
NOSS 3-3 (A) 4.5 20:09:53 10° NW 20:17:16 68° NE 20:18:42 58° E
NOSS 3-3 (C) 4.5 20:09:59 10° NW 20:17:22 68° NE 20:18:47 58° E
SPOT 3 Rocket 3.6 20:18:37 71° N 20:18:37 71° N 20:23:19 10° NNW
Ariane Rocket 3.9 20:22:15 32° SSW 20:24:07 45° W 20:29:01 10° NNW
Cosmos 2360 Rocket 3.9 20:23:30 10° WSW 20:28:29 31° NW 20:33:31 10° NNE
Cosmos 2278 Rocket 2.4 20:25:41 10° NNW 20:30:28 63° N 20:30:28 63° N
Cosmos 1727 Rocket 4.4 20:29:44 10° NNW 20:35:46 57° W 20:37:44 40° SSW
Cosmos 2333 Rocket 2.9 20:32:57 10° SW 20:38:30 52° WNW 20:44:06 10° NNE
Cosmos 1821 Rocket 4.3 20:41:55 58° N 20:41:55 58° N 20:46:46 10° N
Resurs 01 Rocket 3.5 20:50:14 28° NW 20:50:14 28° NW 20:52:29 10° NNW
Cosmos 1943 Rocket 4.0 20:45:47 10° N 20:48:24 21° NNE 20:48:24 21° NNE
Lacrosse 4 Rocket 4.3 20:50:41 10° WSW 20:50:57 11° WSW 20:50:57 11° WSW
COSMOS 2428 4.0 21:03:18 10° SW 21:14:01 10° NNE 21:14:06 10° NNE
Cosmos 2219 Rocket 3.7 21:10:30 10° WSW 21:15:31 33° NW 21:20:35 10° NNE
SJ 16-02 4.1 21:15:15 10° NW 21:16:35 17° NW 21:16:35 17° NW
USA 234 3.9 21:27:15 50° NW 21:27:15 50° NW 21:33:02 10° W
USA 281 4.5 21:34:30 33° N 21:34:30 33° N 21:38:09 10° NNW
Cosmos 2369 Rocket 4.4 21:30:55 10° NNW 21:32:29 17° N 21:32:29 17° N
